EW3204 Weather Reports


Display with metric or nautical units.
time (UTC)temp
F
wind
direction
speed
MPH
gust
MPH
rain 1hr
in
rain 24hr
in
rain mn
in
humidity
%
barometer
mb
20260906224545 88 31 2.0 0.0 0.00 0.00 0.00 46 1008.0
20260906223053 88 360 4.0 0.0 0.00 0.00 0.00 46 1008.1
20260906221543 88 293 3.0 0.0 0.00 0.00 0.00 45 1008.3
20260906220044 89 218 5.0 0.0 0.00 0.00 0.00 45 1008.4
20260906214554 88 234 7.0 0.0 0.00 0.00 0.00 46 1008.4
20260906213047 87 243 8.0 0.0 0.00 0.00 0.00 46 1008.5
20260906211541 87 242 9.0 0.0 0.00 0.00 0.00 46 1008.7
20260906210041 87 251 7.0 0.0 0.00 0.00 0.00 47 1008.6
20260906204541 87 262 8.0 0.0 0.00 0.00 0.00 48 1008.9
20260906203040 89 282 8.0 0.0 0.00 0.00 0.00 43 1008.9
20260906201600 90 157 1.0 0.0 0.00 0.00 0.00 41 1008.8
20260906200037 90 44 2.0 0.0 0.00 0.00 0.00 42 1008.8
20260906200001 90 44 2.0 0.0 0.00 0.00 0.00 42 1008.9
20260906194538 89 71 2.0 0.0 0.00 0.00 0.00 44 1008.9
20260906193039 88 91 2.0 0.0 0.00 0.00 0.00 45 1009.1
20260906191534 88 114 3.0 0.0 0.00 0.00 0.00 46 1009.1
20260906190034 88 101 3.0 0.0 0.00 0.00 0.00 46 1009.2
20260906184529 88 112 3.0 0.0 0.00 0.00 0.00 45 1009.4
20260906183027 87 114 3.0 0.0 0.00 0.00 0.00 46 1009.5
20260906181539 87 131 3.0 0.0 0.00 0.00 0.00 47 1009.4
20260906180024 86 123 3.0 0.0 0.00 0.00 0.00 48 1009.5
20260906174523 86 119 2.0 0.0 0.00 0.00 0.00 49 1009.4
20260906173023 85 138 1.0 0.0 0.00 0.00 0.00 51 1009.4
20260906171521 84 138 3.0 0.0 0.00 0.00 0.00 54 1009.3
20260906170019 84 141 4.0 0.0 0.00 0.00 0.00 57 1009.1
20260906164522 84 127 4.0 0.0 0.00 0.00 0.00 58 1009.0
20260906163024 85 167 2.0 0.0 0.00 0.00 0.00 54 1008.9
20260906161514 84 157 2.0 0.0 0.00 0.00 0.00 52 1008.8
20260906160014 83 304 1.0 0.0 0.00 0.00 0.00 59 1008.7
20260906154512 84 304 0.0 0.0 0.00 0.00 0.00 59 1008.6
20260906153011 83 211 3.0 0.0 0.00 0.00 0.00 58 1008.6
20260906151511 82 210 3.0 0.0 0.00 0.00 0.00 56 1008.7
20260906150016 82 252 2.0 0.0 0.00 0.00 0.00 56 1008.7
20260906144509 82 283 2.0 0.0 0.00 0.00 0.00 58 1008.6
20260906143007 82 283 4.0 0.0 0.00 0.00 0.00 55 1008.5
20260906141506 83 229 1.0 0.0 0.00 0.00 0.00 53 1008.2
20260906140125 83 229 1.0 0.0 0.00 0.00 0.00 53 1008.1
20260906134504 83 229 2.0 0.0 0.00 0.00 0.00 53 1007.8
20260906133005 83 229 4.0 0.0 0.00 0.00 0.00 51 1007.7
20260906131502 82 250 6.0 0.0 0.00 0.00 0.00 53 1007.6
20260906130001 82 261 5.0 0.0 0.00 0.00 0.00 54 1007.7
20260906124607 82 279 7.0 0.0 0.00 0.00 0.00 54 1007.5
20260906123100 82 246 4.0 0.0 0.00 0.00 0.00 56 1007.4
20260906123038 81 246 4.0 0.0 0.00 0.00 0.00 56 1007.4
20260906121530 80 239 1.0 0.0 0.00 0.00 0.00 57 1007.5
20260906120025 79 302 0.0 0.0 0.00 0.00 0.00 62 1007.6
20260906114528 81 302 1.0 0.0 0.00 0.00 0.00 62 1007.7
20260906113019 82 289 5.0 0.0 0.00 0.00 0.00 53 1007.8
20260906111519 82 261 6.0 0.0 0.00 0.00 0.00 51 1007.6
20260906110016 84 259 4.0 0.0 0.00 0.00 0.00 48 1007.5
20260906104516 85 271 4.0 0.0 0.00 0.00 0.00 46 1007.5
20260906103015 85 222 6.0 0.0 0.00 0.00 0.00 44 1007.5
20260906101514 85 296 8.0 0.0 0.00 0.00 0.00 43 1007.3
20260906100014 86 248 6.0 0.0 0.00 0.00 0.00 43 1007.2
20260906094513 85 245 4.0 0.0 0.00 0.00 0.00 44 1007.2
20260906093024 84 242 2.0 0.0 0.00 0.00 0.00 45 1007.4
20260906091511 84 210 2.0 0.0 0.00 0.00 0.00 46 1007.4
20260906090010 83 190 1.0 0.0 0.00 0.00 0.00 48 1007.4
20260906084509 83 114 2.0 0.0 0.00 0.00 0.00 50 1007.6
20260906083005 84 200 2.0 0.0 0.00 0.00 0.00 47 1007.7
20260906081503 84 252 1.0 0.0 0.00 0.00 0.00 45 1007.8
20260906080002 85 252 2.0 0.0 0.00 0.00 0.00 44 1007.8
20260906074502 85 262 6.0 0.0 0.00 0.00 0.00 44 1007.9
20260906073108 84 277 7.0 0.0 0.00 0.00 0.00 45 1008.0
20260906071555 85 263 4.0 0.0 0.00 0.00 0.00 45 1008.2
20260906071520 85 269 3.0 0.0 0.00 0.00 0.00 46 1008.3
20260906070112 86 263 3.0 0.0 0.00 0.00 0.00 40 1008.5
20260906064551 86 275 5.0 0.0 0.00 0.00 0.00 38 1008.2
20260906063051 86 304 5.0 0.0 0.00 0.00 0.00 36 1008.2
20260906061604 86 299 7.0 0.0 0.00 0.00 0.00 35 1008.0
20260906060050 87 279 4.0 0.0 0.00 0.00 0.00 35 1008.0
20260906054549 87 327 5.0 0.0 0.00 0.00 0.00 35 1008.2
20260906053052 87 319 7.0 0.0 0.00 0.00 0.00 34 1008.2
20260906051546 87 275 7.0 0.0 0.00 0.00 0.00 34 1008.2
20260906050105 88 269 8.0 0.0 0.00 0.00 0.00 33 1008.1
20260906044545 88 306 7.0 0.0 0.00 0.00 0.00 33 1008.1
20260906043058 88 275 7.0 0.0 0.00 0.00 0.00 33 1008.1
20260906041543 88 312 9.0 0.0 0.00 0.00 0.00 32 1007.9
20260906040104 89 273 10.0 0.0 0.00 0.00 0.00 32 1007.6
20260906040027 89 263 10.0 0.0 0.00 0.00 0.00 32 1007.6
20260906034528 89 271 10.0 0.0 0.00 0.00 0.00 32 1007.3
20260906033044 89 326 9.0 0.0 0.00 0.00 0.00 31 1007.1
20260906031540 90 283 11.0 0.0 0.00 0.00 0.00 31 1006.8
20260906030040 91 278 10.0 0.0 0.00 0.00 0.00 30 1006.6
20260906024540 91 294 10.0 0.0 0.00 0.00 0.00 29 1006.5
20260906023054 92 267 11.0 0.0 0.00 0.00 0.00 29 1006.4
20260906021538 93 297 11.0 0.0 0.00 0.00 0.00 28 1006.2
20260906020037 93 318 13.0 0.0 0.00 0.00 0.00 27 1006.1
20260906014549 94 322 11.0 0.0 0.00 0.00 0.00 27 1006.2
20260906013034 96 290 6.0 0.0 0.00 0.00 0.00 26 1006.2
20260906011540 96 335 2.0 0.0 0.00 0.00 0.00 25 1006.4
20260906010032 96 127 3.0 0.0 0.00 0.00 0.00 23 1006.3
20260906004532 96 123 3.0 0.0 0.00 0.00 0.00 23 1006.3
20260906003031 96 148 2.0 0.0 0.00 0.00 0.00 23 1006.4
20260906001530 96 144 2.0 0.0 0.00 0.00 0.00 23 1006.3
20260906000028 96 112 2.0 0.0 0.00 0.00 0.00 23 1006.4
20260905234527 96 115 1.0 0.0 0.00 0.00 0.00 23 1006.5
20260905233026 96 11 1.0 0.0 0.00 0.00 0.00 23 1006.5
20260905231525 96 83 1.0 0.0 0.00 0.00 0.00 23 1006.6
20260905230023 95 52 2.0 0.0 0.00 0.00 0.00 23 1006.8